VK2RZ Weather Reports


time (UTC)temp
F
wind
direction
speed
knots
gust
knots
rain 1hr
in
rain 24hr
in
rain mn
in
humidity
%
barometer
mb
20260831233414 65 47 1.7 5.2 0.00 0.00 0.00 6 1025.8
20260831232414 64 37 1.7 6.1 0.00 0.00 0.00 6 1026.0
20260831231414 63 6 2.6 2.6 0.00 0.00 0.00 6 1026.3
20260831230414 63 4 0.9 3.5 0.00 0.00 0.00 6 1026.3
20260831225414 62 358 2.6 3.5 0.00 0.00 0.00 7 1026.4
20260831224414 62 347 0.9 2.6 0.00 0.00 0.00 7 1026.4
20260831223414 61 0 0.0 0.0 0.00 0.00 0.00 7 1026.6
20260831222414 61 0 0.0 3.5 0.00 0.00 0.00 7 1026.8
20260831221414 60 0 0.0 3.5 0.00 0.00 0.00 7 1027.0
20260831220414 59 0 0.0 2.6 0.00 0.00 0.00 7 1026.9
20260831215414 59 335 1.7 1.7 0.00 0.00 0.00 7 1027.0
20260831214414 58 0 0.0 2.6 0.00 0.00 0.00 7 1026.9
20260831213414 58 335 1.7 2.6 0.00 0.00 0.00 7 1027.0
20260831212414 58 334 2.6 2.6 0.00 0.00 0.00 7 1026.9
20260831211414 57 333 1.7 3.5 0.00 0.00 0.00 7 1026.9
20260831210414 57 337 1.7 4.3 0.00 0.00 0.00 7 1026.8
20260831205414 56 338 2.6 4.3 0.00 0.00 0.00 7 1026.8
20260831204414 55 0 0.0 0.0 0.00 0.00 0.00 7 1026.7
20260831203414 54 0 0.0 0.0 0.00 0.00 0.00 7 1026.7
20260831202414 53 0 0.0 0.0 0.00 0.00 0.00 7 1026.6
20260831201414 53 0 0.0 0.0 0.00 0.00 0.00 7 1026.6
20260831200414 54 0 0.0 0.0 0.00 0.00 0.00 7 1026.6
20260831195414 53 0 0.0 0.0 0.00 0.00 0.00 7 1026.6
20260831194414 54 0 0.0 0.0 0.00 0.00 0.00 7 1026.6
20260831193414 55 0 0.0 0.0 0.00 0.00 0.00 7 1026.6
20260831192414 54 0 0.0 0.0 0.00 0.00 0.00 7 1026.6
20260831191414 54 0 0.0 0.0 0.00 0.00 0.00 7 1026.5
20260831190414 55 0 0.0 0.0 0.00 0.00 0.00 7 1026.5
20260831185414 55 0 0.0 0.0 0.00 0.00 0.00 7 1026.6
20260831184412 55 0 0.0 0.0 0.00 0.00 0.00 7 1026.5
20260831183412 55 0 0.0 0.0 0.00 0.00 0.00 7 1026.6
20260831182412 54 0 0.0 0.0 0.00 0.00 0.00 7 1026.5
20260831181412 54 0 0.0 0.0 0.00 0.00 0.00 7 1026.4
20260831180412 55 0 0.0 0.0 0.00 0.00 0.00 7 1026.4
20260831175412 56 0 0.0 0.0 0.00 0.00 0.00 7 1026.4
20260831174412 56 0 0.0 0.0 0.00 0.00 0.00 7 1026.5
20260831173412 55 0 0.0 0.0 0.00 0.00 0.00 7 1026.5
20260831172412 56 0 0.0 0.0 0.00 0.00 0.00 7 1026.5
20260831171412 57 0 0.0 0.0 0.00 0.00 0.00 7 1026.5
20260831170412 56 0 0.0 0.0 0.00 0.00 0.00 7 1026.6
20260831165412 55 0 0.0 0.0 0.00 0.00 0.00 7 1026.7
20260831164412 55 0 0.0 0.0 0.00 0.00 0.00 7 1026.7
20260831163412 55 0 0.0 0.0 0.00 0.00 0.00 7 1026.9
20260831162412 56 0 0.0 0.0 0.00 0.00 0.00 7 1027.0
20260831161412 57 0 0.0 0.0 0.00 0.00 0.00 7 1027.2
20260831160412 57 0 0.0 0.0 0.00 0.00 0.00 7 1027.3
20260831155412 57 0 0.0 0.0 0.00 0.00 0.00 7 1027.5
20260831154412 56 0 0.0 0.0 0.00 0.00 0.00 7 1027.6
20260831153412 57 0 0.0 0.0 0.00 0.00 0.00 7 1027.7
20260831152412 57 0 0.0 0.0 0.00 0.00 0.00 7 1028.0
20260831151412 57 0 0.0 0.0 0.00 0.00 0.00 7 1028.2
20260831150412 56 0 0.0 0.0 0.00 0.00 0.00 7 1028.3
20260831145412 56 0 0.0 0.0 0.00 0.00 0.00 7 1028.4
20260831144412 56 0 0.0 0.0 0.00 0.00 0.00 7 1028.4
20260831143412 56 0 0.0 0.0 0.00 0.00 0.00 7 1028.5
20260831142412 56 0 0.0 0.0 0.00 0.00 0.00 7 1028.5
20260831141412 56 0 0.0 0.0 0.00 0.00 0.00 7 1028.6
20260831140412 56 0 0.0 0.0 0.00 0.00 0.00 7 1028.7
20260831135412 56 0 0.0 0.0 0.00 0.00 0.00 7 1028.8
20260831134412 56 0 0.0 0.0 0.00 0.00 0.00 7 1028.7
20260831133412 56 0 0.0 1.7 0.00 0.00 0.00 7 1028.9
20260831132412 56 0 0.0 1.7 0.00 0.00 0.00 7 1028.9
20260831131412 56 0 0.0 0.0 0.00 0.00 0.00 7 1029.0
20260831130412 56 339 0.9 1.7 0.00 0.00 0.00 8 1029.2
20260831125412 55 339 0.9 1.7 0.00 0.00 0.00 8 1029.1
20260831124412 55 339 0.9 1.7 0.00 0.00 0.00 8 1029.2
20260831123412 55 0 0.0 3.5 0.00 0.00 0.00 8 1029.1
20260831122412 56 0 0.0 0.0 0.00 0.00 0.00 7 1029.2
20260831121412 57 0 0.0 1.7 0.00 0.00 0.00 7 1029.3
20260831120412 58 340 1.7 1.7 0.00 0.00 0.00 7 1029.3
20260831115411 58 340 1.7 3.5 0.00 0.00 0.00 7 1029.3
20260831114411 59 0 0.0 3.5 0.00 0.00 0.00 7 1029.4
20260831113411 59 341 1.7 4.3 0.00 0.00 0.00 7 1029.4
20260831112411 59 342 0.9 3.5 0.00 0.00 0.00 7 1029.6
20260831111411 59 0 0.0 3.5 0.00 0.00 0.00 7 1029.6
20260831110411 59 342 0.9 3.5 0.00 0.00 0.00 7 1029.6
20260831105411 59 343 3.5 3.5 0.00 0.00 0.00 7 1029.6
20260831104410 59 0 0.0 3.5 0.00 0.00 0.00 7 1029.7
20260831103410 59 344 1.7 5.2 0.00 0.00 0.00 7 1029.6
20260831102410 59 0 0.0 3.5 0.00 0.00 0.00 7 1029.7
20260831101410 59 343 1.7 4.3 0.00 0.00 0.00 7 1029.5
20260831100410 59 0 0.0 4.3 0.00 0.00 0.00 7 1029.6
20260831095409 59 345 0.9 3.5 0.00 0.00 0.00 7 1029.5
20260831094409 59 0 0.0 3.5 0.00 0.00 0.00 8 1029.6
20260831093409 59 345 1.7 4.3 0.00 0.00 0.00 8 1029.5
20260831092409 59 14 1.7 2.6 0.00 0.00 0.00 8 1029.6
20260831091408 59 13 1.7 2.6 0.00 0.00 0.00 8 1029.7
20260831090408 59 14 1.7 4.3 0.00 0.00 0.00 8 1029.7
20260831085408 59 0 0.0 5.2 0.00 0.00 0.00 8 1029.6
20260831084408 59 349 0.9 4.3 0.00 0.00 0.00 8 1029.5
20260831083408 60 359 1.7 2.6 0.00 0.00 0.00 8 1029.4
20260831082408 60 0 0.0 4.3 0.00 0.00 0.00 8 1029.4
20260831081408 60 0 0.0 0.0 0.00 0.00 0.00 8 1029.4
20260831080407 60 0 0.0 0.9 0.00 0.00 0.00 8 1029.3
20260831075407 60 35 1.7 3.5 0.00 0.00 0.00 8 1029.4
20260831074407 61 29 2.6 5.2 0.00 0.00 0.00 8 1029.2
20260831073407 61 22 1.7 4.3 0.00 0.00 0.00 8 1029.2
20260831072407 61 0 0.0 2.6 0.00 0.00 0.00 8 1029.1
20260831071407 62 54 2.6 6.1 0.00 0.00 0.00 7 1029.0
20260831070407 62 49 1.7 8.7 0.00 0.00 0.00 7 1028.9
20260831065407 62 54 0.9 7.0 0.00 0.00 0.00 7 1029.0
20260831064407 62 43 0.9 3.5 0.00 0.00 0.00 7 1028.9
20260831063407 63 43 2.6 4.3 0.00 0.00 0.00 7 1028.9
20260831062407 63 0 0.0 7.8 0.00 0.00 0.00 7 1028.8
20260831061407 64 52 1.7 4.3 0.00 0.00 0.00 7 1028.8
20260831060407 64 59 3.5 8.7 0.00 0.00 0.00 6 1028.8
20260831055407 64 79 2.6 7.8 0.00 0.00 0.00 6 1028.7
20260831054407 65 71 2.6 6.1 0.00 0.00 0.00 6 1028.8
20260831053407 65 29 6.1 6.1 0.00 0.00 0.00 6 1028.8
20260831052407 65 44 1.7 8.7 0.00 0.00 0.00 6 1028.9
20260831051407 65 38 0.9 8.7 0.00 0.00 0.00 6 1029.0
20260831050407 65 81 3.5 7.0 0.00 0.00 0.00 7 1029.1
20260831045407 65 83 5.2 7.0 0.00 0.00 0.00 7 1029.0
20260831044407 65 57 1.7 5.2 0.00 0.00 0.00 7 1029.0
20260831043407 65 81 2.6 12.2 0.00 0.00 0.00 7 1029.1
20260831042407 65 53 1.7 6.1 0.00 0.00 0.00 7 1029.0
20260831041407 65 82 2.6 8.7 0.00 0.00 0.00 7 1029.2
20260831040406 65 82 7.0 7.8 0.00 0.00 0.00 7 1029.2
20260831035406 65 71 4.3 7.0 0.00 0.00 0.00 7 1029.1
20260831034406 65 57 4.3 7.0 0.00 0.00 0.00 7 1029.2
20260831033406 65 80 3.5 7.8 0.00 0.00 0.00 7 1029.4
20260831032406 65 82 5.2 9.6 0.00 0.00 0.00 7 1029.5
20260831031406 65 62 5.2 7.8 0.00 0.00 0.00 7 1029.5
20260831030405 65 99 2.6 7.0 0.00 0.00 0.00 7 1029.6
20260831025405 65 87 2.6 9.6 0.00 0.00 0.00 7 1029.7
20260831024405 65 12 6.1 7.8 0.00 0.00 0.00 7 1029.9
20260831023405 65 72 1.7 7.0 0.00 0.00 0.00 7 1029.9
20260831022405 65 65 6.1 8.7 0.00 0.00 0.00 7 1030.0
20260831021405 65 9 2.6 7.8 0.00 0.00 0.00 7 1030.1
20260831020405 65 47 1.7 9.6 0.00 0.00 0.00 7 1030.4
20260831015404 65 46 6.1 10.4 0.00 0.00 0.00 7 1030.5
20260831014404 65 33 7.0 9.6 0.00 0.00 0.00 6 1030.8
20260831013404 66 82 3.5 7.8 0.00 0.00 0.00 6 1030.9
20260831012404 65 94 5.2 7.0 0.00 0.00 0.00 6 1031.1
20260831011404 66 97 2.6 7.0 0.00 0.00 0.00 6 1031.1
20260831010404 65 60 3.5 6.1 0.00 0.00 0.00 7 1031.2
20260831005404 65 47 4.3 7.0 0.00 0.00 0.00 6 1031.2
20260831004404 66 43 6.1 7.0 0.00 0.00 0.00 6 1031.3
20260831003404 66 83 3.5 5.2 0.00 0.00 0.00 6 1031.3
20260831002404 66 29 3.5 7.0 0.00 0.00 0.00 6 1031.2
20260831001404 65 89 2.6 6.1 0.00 0.00 0.00 6 1031.1
20260831000404 65 37 1.7 4.3 0.00 0.00 0.00 6 1031.1
20260830235404 64 62 1.7 4.3 0.00 0.00 0.00 6 1031.2
20260830234404 64 39 1.7 3.5 0.00 0.00 0.00 6 1031.2